Time,TemperatureF,DewpointF,PressureIn,WindDirection,WindDirectionDegrees,WindSpeedMPH,WindSpeedGustMPH,Humidity,HourlyPrecipIn,Conditions,Clouds,dailyrainin,SoftwareType,DateUTC
2013-07-10 00:01:00,67.0,64.6,30.01,NNE,30,0.0,0.0,92,0.00,,,0.00,WeatherCatV1.15B25,2013-07-10 04:01:00,
2013-07-10 00:06:00,67.0,64.6,30.01,NNE,30,0.0,0.0,92,0.00,,,0.00,WeatherCatV1.15B25,2013-07-10 04:06:00,
2013-07-10 00:11:00,67.0,64.6,30.01,NNE,30,0.0,0.0,92,0.00,,,0.00,WeatherCatV1.15B25,2013-07-10 04:11:00,
2013-07-10 00:16:00,67.0,64.6,30.01,NNE,30,0.0,0.0,92,0.00,,,0.00,WeatherCatV1.15B25,2013-07-10 04:16:00,
2013-07-10 00:21:00,67.0,64.6,30.01,NNE,30,0.0,0.0,92,0.00,,,0.00,WeatherCatV1.15B25,2013-07-10 04:21:00,
2013-07-10 00:26:00,67.0,64.6,30.01,NNE,30,0.0,0.0,92,0.00,,,0.00,WeatherCatV1.15B25,2013-07-10 04:26:00,
2013-07-10 00:31:00,67.0,64.6,30.01,NNE,30,0.0,0.0,92,0.00,,,0.00,WeatherCatV1.15B25,2013-07-10 04:31:00,
2013-07-10 00:36:00,67.0,64.6,30.01,NNE,30,0.0,0.0,92,0.00,,,0.00,WeatherCatV1.15B25,2013-07-10 04:36:00,
2013-07-10 00:41:00,67.0,64.6,30.01,NNE,30,0.0,0.0,92,0.00,,,0.00,WeatherCatV1.15B25,2013-07-10 04:41:00,
2013-07-10 00:46:00,67.0,64.6,30.01,NNE,30,0.0,0.0,92,0.00,,,0.00,WeatherCatV1.15B25,2013-07-10 04:46:00,
2013-07-10 00:51:00,67.0,64.6,30.01,NNE,30,0.0,0.0,92,0.00,,,0.00,WeatherCatV1.15B25,2013-07-10 04:51:00,
2013-07-10 00:56:00,67.0,64.9,30.01,NNE,30,0.0,0.0,93,0.00,,,0.00,WeatherCatV1.15B25,2013-07-10 04:56:00,
2013-07-10 01:01:00,67.0,64.9,30.00,NNE,30,0.0,0.0,93,0.00,,,0.00,WeatherCatV1.15B25,2013-07-10 05:01:00,
2013-07-10 01:06:00,66.9,64.8,30.00,NNE,29,0.0,0.0,93,0.00,,,0.00,WeatherCatV1.15B25,2013-07-10 05:06:00,
2013-07-10 01:11:00,66.9,64.8,30.00,NNE,29,0.0,0.0,93,0.00,,,0.00,WeatherCatV1.15B25,2013-07-10 05:11:00,
2013-07-10 01:16:00,66.9,64.8,30.00,NNE,29,0.0,0.0,93,0.00,,,0.00,WeatherCatV1.15B25,2013-07-10 05:16:00,
2013-07-10 01:21:00,66.9,64.8,30.00,NNE,29,0.0,0.0,93,0.00,,,0.00,WeatherCatV1.15B25,2013-07-10 05:21:00,
2013-07-10 01:26:00,66.9,64.8,30.00,NNE,29,0.0,0.0,93,0.00,,,0.00,WeatherCatV1.15B25,2013-07-10 05:26:00,
2013-07-10 01:31:00,66.8,64.7,29.99,NNE,29,0.0,0.0,93,0.00,,,0.00,WeatherCatV1.15B25,2013-07-10 05:31:00,
2013-07-10 01:36:00,66.8,64.7,29.99,NNE,28,0.0,0.0,93,0.00,,,0.00,WeatherCatV1.15B25,2013-07-10 05:36:00,
2013-07-10 01:41:00,66.7,64.6,29.99,NNE,27,0.0,0.0,93,0.00,,,0.00,WeatherCatV1.15B25,2013-07-10 05:41:00,
2013-07-10 01:46:00,66.7,64.6,29.99,NNE,19,0.0,0.0,93,0.00,,,0.00,WeatherCatV1.15B25,2013-07-10 05:46:00,
2013-07-10 01:51:00,66.7,64.6,29.99,NNE,19,0.0,0.0,93,0.00,,,0.00,WeatherCatV1.15B25,2013-07-10 05:51:00,
2013-07-10 01:56:00,66.7,64.6,29.98,ENE,75,0.0,2.0,93,0.00,,,0.00,WeatherCatV1.15B25,2013-07-10 05:56:00,
2013-07-10 02:01:00,66.6,64.8,29.98,NNE,31,0.0,0.0,94,0.00,,,0.00,WeatherCatV1.15B25,2013-07-10 06:01:00,
2013-07-10 02:06:00,66.6,64.8,29.98,NE,47,0.0,0.0,94,0.00,,,0.00,WeatherCatV1.15B25,2013-07-10 06:06:00,
2013-07-10 02:11:00,66.5,64.4,29.98,NNE,21,0.0,0.0,93,0.00,,,0.00,WeatherCatV1.15B25,2013-07-10 06:11:00,
2013-07-10 02:16:00,66.5,64.7,29.98,NNE,21,0.0,0.0,94,0.00,,,0.00,WeatherCatV1.15B25,2013-07-10 06:16:00,
2013-07-10 02:21:00,66.4,64.6,29.98,North,11,0.0,0.0,94,0.00,,,0.00,WeatherCatV1.15B25,2013-07-10 06:21:00,
2013-07-10 02:26:00,66.3,64.5,29.98,NNE,25,0.0,0.0,94,0.00,,,0.00,WeatherCatV1.15B25,2013-07-10 06:26:00,
2013-07-10 02:31:00,66.3,64.5,29.98,NE,35,0.0,0.0,94,0.00,,,0.00,WeatherCatV1.15B25,2013-07-10 06:31:00,
2013-07-10 02:36:00,66.2,64.4,29.97,NE,35,0.0,0.0,94,0.00,,,0.00,WeatherCatV1.15B25,2013-07-10 06:36:00,
2013-07-10 02:41:00,66.2,64.4,29.97,NE,35,0.0,0.0,94,0.00,,,0.00,WeatherCatV1.15B25,2013-07-10 06:41:00,
2013-07-10 02:46:00,66.2,64.4,29.97,NE,35,0.0,0.0,94,0.00,,,0.00,WeatherCatV1.15B25,2013-07-10 06:46:00,
2013-07-10 02:51:00,66.2,64.4,29.97,NE,42,0.0,0.0,94,0.00,,,0.00,WeatherCatV1.15B25,2013-07-10 06:51:00,
2013-07-10 02:56:00,66.2,64.4,29.97,NE,44,0.0,0.0,94,0.00,,,0.00,WeatherCatV1.15B25,2013-07-10 06:56:00,
2013-07-10 03:01:00,66.2,64.4,29.97,NNE,28,0.0,0.0,94,0.00,,,0.00,WeatherCatV1.15B25,2013-07-10 07:01:00,
2013-07-10 03:06:00,66.2,64.4,29.97,NNE,17,0.0,0.0,94,0.00,,,0.00,WeatherCatV1.15B25,2013-07-10 07:06:00,
2013-07-10 03:11:00,66.2,64.4,29.97,NNE,24,0.0,0.0,94,0.00,,,0.00,WeatherCatV1.15B25,2013-07-10 07:11:00,
2013-07-10 03:16:00,66.2,64.4,29.96,ENE,74,0.0,0.0,94,0.00,,,0.00,WeatherCatV1.15B25,2013-07-10 07:16:00,
2013-07-10 03:21:00,66.1,64.3,29.97,NE,35,0.0,0.0,94,0.00,,,0.00,WeatherCatV1.15B25,2013-07-10 07:21:00,
2013-07-10 03:26:00,66.2,64.4,29.96,NE,35,0.0,0.0,94,0.00,,,0.00,WeatherCatV1.15B25,2013-07-10 07:26:00,
2013-07-10 03:31:00,66.1,64.3,29.97,NE,35,0.0,0.0,94,0.00,,,0.00,WeatherCatV1.15B25,2013-07-10 07:31:00,
2013-07-10 03:36:00,66.2,64.4,29.96,NE,35,0.0,0.0,94,0.00,,,0.00,WeatherCatV1.15B25,2013-07-10 07:36:00,
2013-07-10 03:41:00,66.2,64.4,29.96,ENE,61,0.0,0.0,94,0.00,,,0.00,WeatherCatV1.15B25,2013-07-10 07:41:00,
2013-07-10 03:46:00,66.2,64.4,29.96,NE,37,0.0,0.0,94,0.00,,,0.00,WeatherCatV1.15B25,2013-07-10 07:46:00,
2013-07-10 03:51:00,66.2,64.4,29.96,NE,37,0.0,0.0,94,0.00,,,0.00,WeatherCatV1.15B25,2013-07-10 07:51:00,
2013-07-10 03:56:00,66.2,64.4,29.95,NE,37,0.0,0.0,94,0.00,,,0.00,WeatherCatV1.15B25,2013-07-10 07:56:00,
2013-07-10 04:01:00,66.2,64.4,29.95,NE,37,0.0,0.0,94,0.00,,,0.00,WeatherCatV1.15B25,2013-07-10 08:01:00,
2013-07-10 04:06:00,66.2,64.7,29.96,NE,37,0.0,0.0,95,0.00,,,0.00,WeatherCatV1.15B25,2013-07-10 08:06:00,
2013-07-10 04:11:00,66.2,64.7,29.95,NE,37,0.0,0.0,95,0.00,,,0.00,WeatherCatV1.15B25,2013-07-10 08:11:00,
2013-07-10 04:16:00,66.2,64.7,29.95,NE,37,0.0,0.0,95,0.00,,,0.00,WeatherCatV1.15B25,2013-07-10 08:16:00,
2013-07-10 04:21:00,66.3,64.8,29.95,NE,37,0.0,0.0,95,0.00,,,0.00,WeatherCatV1.15B25,2013-07-10 08:21:00,
2013-07-10 04:26:00,66.2,64.7,29.95,NE,37,0.0,0.0,95,0.00,,,0.00,WeatherCatV1.15B25,2013-07-10 08:26:00,
2013-07-10 04:31:00,66.3,65.1,29.95,NE,37,0.0,0.0,96,0.00,,,0.00,WeatherCatV1.15B25,2013-07-10 08:31:00,
2013-07-10 04:36:00,66.3,65.1,29.95,NE,37,0.0,0.0,96,0.00,,,0.00,WeatherCatV1.15B25,2013-07-10 08:36:00,
2013-07-10 04:41:00,66.3,65.1,29.95,NE,37,0.0,0.0,96,0.00,,,0.00,WeatherCatV1.15B25,2013-07-10 08:41:00,
2013-07-10 04:46:00,66.3,65.1,29.95,NE,37,0.0,0.0,96,0.00,,,0.00,WeatherCatV1.15B25,2013-07-10 08:46:00,
2013-07-10 04:51:00,66.3,65.1,29.95,NE,37,0.0,0.0,96,0.00,,,0.00,WeatherCatV1.15B25,2013-07-10 08:51:00,
2013-07-10 04:56:00,66.3,65.1,29.95,NE,37,0.0,0.0,96,0.00,,,0.00,WeatherCatV1.15B25,2013-07-10 08:56:00,
2013-07-10 05:01:00,66.2,65.0,29.95,NE,37,0.0,0.0,96,0.00,,,0.00,WeatherCatV1.15B25,2013-07-10 09:01:00,
2013-07-10 05:06:00,66.2,65.0,29.95,NE,37,0.0,0.0,96,0.00,,,0.00,WeatherCatV1.15B25,2013-07-10 09:06:00,
2013-07-10 05:11:00,66.2,65.0,29.95,NNE,12,0.0,0.0,96,0.00,,,0.00,WeatherCatV1.15B25,2013-07-10 09:11:00,
2013-07-10 05:16:00,66.2,65.0,29.95,NNE,13,0.0,0.0,96,0.00,,,0.00,WeatherCatV1.15B25,2013-07-10 09:16:00,
2013-07-10 05:21:00,66.2,65.0,29.95,NNE,14,0.0,0.0,96,0.00,,,0.00,WeatherCatV1.15B25,2013-07-10 09:21:00,
2013-07-10 05:26:00,66.2,65.0,29.95,NE,47,0.0,0.0,96,0.00,,,0.00,WeatherCatV1.15B25,2013-07-10 09:26:00,
2013-07-10 05:31:00,66.2,65.0,29.95,NE,47,0.0,0.0,96,0.00,,,0.00,WeatherCatV1.15B25,2013-07-10 09:31:00,
2013-07-10 05:33:00,66.2,65.3,29.95,NE,47,0.0,0.0,97,0.00,,,0.00,WeatherCatV1.15B25,2013-07-10 09:33:00,
2013-07-10 05:38:00,66.2,65.3,29.95,NE,47,0.0,0.0,97,0.00,,,0.00,WeatherCatV1.15B25,2013-07-10 09:38:00,
2013-07-10 05:43:00,66.2,65.3,29.94,NE,47,0.0,0.0,97,0.00,,,0.00,WeatherCatV1.15B25,2013-07-10 09:43:00,
2013-07-10 05:48:00,66.2,65.3,29.94,NE,47,0.0,0.0,97,0.00,,,0.00,WeatherCatV1.15B25,2013-07-10 09:48:00,
2013-07-10 05:53:00,66.2,65.3,29.94,NE,47,0.0,0.0,97,0.00,,,0.00,WeatherCatV1.15B25,2013-07-10 09:53:00,
2013-07-10 05:58:00,66.3,65.4,29.94,NNE,26,0.0,0.0,97,0.00,,,0.00,WeatherCatV1.15B25,2013-07-10 09:58:00,
2013-07-10 06:03:00,66.3,65.4,29.95,NE,48,0.0,0.0,97,0.00,,,0.00,WeatherCatV1.15B25,2013-07-10 10:03:00,
2013-07-10 06:08:00,66.3,65.4,29.95,NNE,13,0.0,0.0,97,0.00,,,0.00,WeatherCatV1.15B25,2013-07-10 10:08:00,
2013-07-10 06:13:00,66.3,65.4,29.95,NNE,13,0.0,0.0,97,0.00,,,0.00,WeatherCatV1.15B25,2013-07-10 10:13:00,
2013-07-10 06:18:00,66.4,65.5,29.95,NNE,13,0.0,0.0,97,0.00,,,0.00,WeatherCatV1.15B25,2013-07-10 10:18:00,
2013-07-10 06:23:00,66.4,65.5,29.95,NNE,13,0.0,0.0,97,0.00,,,0.00,WeatherCatV1.15B25,2013-07-10 10:23:00,
2013-07-10 06:28:00,66.4,65.5,29.95,NNE,13,0.0,0.0,97,0.00,,,0.00,WeatherCatV1.15B25,2013-07-10 10:28:00,
2013-07-10 06:33:00,66.5,65.6,29.95,NNE,13,0.0,0.0,97,0.00,,,0.00,WeatherCatV1.15B25,2013-07-10 10:33:00,
2013-07-10 06:38:00,66.6,65.7,29.95,NNE,13,0.0,0.0,97,0.00,,,0.00,WeatherCatV1.15B25,2013-07-10 10:38:00,
2013-07-10 06:43:00,66.6,65.7,29.95,NNE,13,0.0,0.0,97,0.00,,,0.00,WeatherCatV1.15B25,2013-07-10 10:43:00,
2013-07-10 06:48:00,66.6,65.7,29.95,NE,40,0.0,0.0,97,0.00,,,0.00,WeatherCatV1.15B25,2013-07-10 10:48:00,
2013-07-10 06:53:00,66.6,65.7,29.95,NE,40,0.0,0.0,97,0.00,,,0.00,WeatherCatV1.15B25,2013-07-10 10:53:00,
2013-07-10 06:58:00,66.7,65.8,29.95,NE,40,0.0,0.0,97,0.00,,,0.00,WeatherCatV1.15B25,2013-07-10 10:58:00,
2013-07-10 07:03:00,66.7,65.8,29.94,NE,40,0.0,0.0,97,0.00,,,0.00,WeatherCatV1.15B25,2013-07-10 11:03:00,
2013-07-10 07:08:00,66.7,65.8,29.95,ENE,59,0.0,0.0,97,0.00,,,0.00,WeatherCatV1.15B25,2013-07-10 11:08:00,
2013-07-10 07:13:00,66.8,65.9,29.94,NE,46,0.0,0.0,97,0.00,,,0.00,WeatherCatV1.15B25,2013-07-10 11:13:00,
2013-07-10 07:18:00,66.8,65.9,29.94,NE,46,0.0,0.0,97,0.00,,,0.00,WeatherCatV1.15B25,2013-07-10 11:18:00,
2013-07-10 07:23:00,66.8,65.9,29.94,NE,46,0.0,0.0,97,0.00,,,0.00,WeatherCatV1.15B25,2013-07-10 11:23:00,
2013-07-10 07:28:00,66.9,66.0,29.94,NE,46,0.0,0.0,97,0.00,,,0.00,WeatherCatV1.15B25,2013-07-10 11:28:00,
2013-07-10 07:33:00,66.9,66.0,29.94,NE,46,0.0,0.0,97,0.00,,,0.00,WeatherCatV1.15B25,2013-07-10 11:33:00,
2013-07-10 07:38:00,67.0,66.1,29.94,NE,46,0.0,0.0,97,0.00,,,0.00,WeatherCatV1.15B25,2013-07-10 11:38:00,
2013-07-10 07:43:00,67.0,66.1,29.94,NE,46,0.0,0.0,97,0.00,,,0.00,WeatherCatV1.15B25,2013-07-10 11:43:00,
2013-07-10 07:48:00,67.0,66.1,29.94,NE,46,0.0,0.0,97,0.00,,,0.00,WeatherCatV1.15B25,2013-07-10 11:48:00,
2013-07-10 07:53:00,67.1,66.5,29.94,NNE,27,0.0,0.0,98,0.00,,,0.00,WeatherCatV1.15B25,2013-07-10 11:53:00,
2013-07-10 07:58:00,67.1,66.5,29.94,NNE,27,0.0,0.0,98,0.00,,,0.00,WeatherCatV1.15B25,2013-07-10 11:58:00,
2013-07-10 08:03:00,67.2,66.6,29.94,NNE,27,0.0,0.0,98,0.00,,,0.00,WeatherCatV1.15B25,2013-07-10 12:03:00,
2013-07-10 08:08:00,67.3,66.7,29.94,NNE,27,0.0,0.0,98,0.00,,,0.00,WeatherCatV1.15B25,2013-07-10 12:08:00,
2013-07-10 08:13:00,67.5,66.9,29.94,NNE,27,0.0,0.0,98,0.00,,,0.00,WeatherCatV1.15B25,2013-07-10 12:13:00,
2013-07-10 08:18:00,67.5,66.9,29.93,NNE,27,0.0,0.0,98,0.00,,,0.00,WeatherCatV1.15B25,2013-07-10 12:18:00,
2013-07-10 08:23:00,67.7,67.1,29.93,NNE,27,0.0,0.0,98,0.00,,,0.00,WeatherCatV1.15B25,2013-07-10 12:23:00,
2013-07-10 08:28:00,67.8,67.2,29.93,NNE,27,0.0,0.0,98,0.00,,,0.00,WeatherCatV1.15B25,2013-07-10 12:28:00,
2013-07-10 08:33:00,68.0,67.4,29.93,NNE,27,0.0,0.0,98,0.00,,,0.00,WeatherCatV1.15B25,2013-07-10 12:33:00,
2013-07-10 08:38:00,68.1,67.5,29.93,NNE,27,0.0,0.0,98,0.00,,,0.00,WeatherCatV1.15B25,2013-07-10 12:38:00,
2013-07-10 08:43:00,68.1,67.5,29.93,NNE,27,0.0,0.0,98,0.00,,,0.00,WeatherCatV1.15B25,2013-07-10 12:43:00,
2013-07-10 08:48:00,68.2,67.6,29.93,NNE,27,0.0,0.0,98,0.00,,,0.00,WeatherCatV1.15B25,2013-07-10 12:48:00,
2013-07-10 08:53:00,68.3,67.7,29.93,NNE,27,0.0,0.0,98,0.00,,,0.00,WeatherCatV1.15B25,2013-07-10 12:53:00,
2013-07-10 08:58:00,68.5,67.9,29.93,NNE,27,0.0,0.0,98,0.00,,,0.00,WeatherCatV1.15B25,2013-07-10 12:58:00,
2013-07-10 09:03:00,68.6,68.0,29.92,NNE,27,0.0,0.0,98,0.00,,,0.00,WeatherCatV1.15B25,2013-07-10 13:03:00,
2013-07-10 09:08:00,68.8,68.2,29.92,NNE,27,0.0,0.0,98,0.00,,,0.00,WeatherCatV1.15B25,2013-07-10 13:08:00,
2013-07-10 09:13:00,69.0,68.4,29.91,NNE,27,0.0,0.0,98,0.00,,,0.00,WeatherCatV1.15B25,2013-07-10 13:13:00,
2013-07-10 09:18:00,69.4,68.8,29.91,NNE,20,0.0,0.0,98,0.00,,,0.00,WeatherCatV1.15B25,2013-07-10 13:18:00,
2013-07-10 09:24:00,69.9,69.3,29.91,North,7,0.0,0.0,98,0.00,,,0.00,WeatherCatV1.15B25,2013-07-10 13:24:00,
2013-07-10 09:29:00,70.1,69.5,29.91,North,7,0.0,0.0,98,0.00,,,0.00,WeatherCatV1.15B25,2013-07-10 13:29:00,
2013-07-10 09:34:00,70.4,69.8,29.91,North,7,0.0,0.0,98,0.00,,,0.00,WeatherCatV1.15B25,2013-07-10 13:34:00,
2013-07-10 09:39:00,70.6,70.0,29.91,North,11,0.0,0.0,98,0.00,,,0.00,WeatherCatV1.15B25,2013-07-10 13:39:00,
2013-07-10 09:44:00,70.9,70.0,29.91,North,7,0.0,0.0,97,0.00,,,0.00,WeatherCatV1.15B25,2013-07-10 13:44:00,
2013-07-10 09:49:00,71.1,70.2,29.91,North,11,0.0,0.0,97,0.00,,,0.00,WeatherCatV1.15B25,2013-07-10 13:49:00,
2013-07-10 09:54:00,71.3,70.4,29.90,North,11,0.0,0.0,97,0.00,,,0.00,WeatherCatV1.15B25,2013-07-10 13:54:00,
2013-07-10 09:59:00,71.6,70.7,29.91,North,11,0.0,0.0,97,0.00,,,0.00,WeatherCatV1.15B25,2013-07-10 13:59:00,
2013-07-10 10:04:00,71.8,70.9,29.91,North,11,0.0,0.0,97,0.00,,,0.00,WeatherCatV1.15B25,2013-07-10 14:04:00,
2013-07-10 10:09:00,72.1,70.9,29.90,North,11,0.0,0.0,96,0.00,,,0.00,WeatherCatV1.15B25,2013-07-10 14:09:00,
2013-07-10 10:13:00,72.5,71.3,29.90,North,11,0.0,0.0,96,0.00,,,0.00,WeatherCatV1.15B25,2013-07-10 14:13:00,
2013-07-10 10:19:00,72.9,71.7,29.90,North,11,0.0,0.0,96,0.00,,,0.00,WeatherCatV1.15B25,2013-07-10 14:19:00,
2013-07-10 10:24:00,73.3,72.1,29.90,East,84,0.0,0.0,96,0.00,,,0.00,WeatherCatV1.15B25,2013-07-10 14:24:00,
2013-07-10 10:29:00,73.6,72.1,29.90,SE,136,0.0,0.0,95,0.00,,,0.00,WeatherCatV1.15B25,2013-07-10 14:29:00,
2013-07-10 10:34:00,73.8,72.3,29.90,SE,136,0.0,0.0,95,0.00,,,0.00,WeatherCatV1.15B25,2013-07-10 14:34:00,
2013-07-10 10:39:00,74.0,72.2,29.89,SSE,147,0.0,0.0,94,0.00,,,0.00,WeatherCatV1.15B25,2013-07-10 14:39:00,
2013-07-10 10:44:00,74.5,72.7,29.89,South,172,0.0,0.0,94,0.00,,,0.00,WeatherCatV1.15B25,2013-07-10 14:44:00,
2013-07-10 10:49:00,75.1,72.9,29.89,SSE,152,0.0,0.0,93,0.00,,,0.00,WeatherCatV1.15B25,2013-07-10 14:49:00,
2013-07-10 10:54:00,75.8,72.6,29.89,SW,234,0.0,0.0,90,0.00,,,0.00,WeatherCatV1.15B25,2013-07-10 14:54:00,
2013-07-10 10:59:00,76.7,72.9,29.89,SE,135,0.0,1.0,88,0.00,,,0.00,WeatherCatV1.15B25,2013-07-10 14:59:00,
2013-07-10 11:04:00,77.3,72.8,29.88,South,173,0.0,0.0,86,0.00,,,0.00,WeatherCatV1.15B25,2013-07-10 15:04:00,
2013-07-10 11:09:00,77.7,73.2,29.88,SSE,168,0.0,0.0,86,0.00,,,0.00,WeatherCatV1.15B25,2013-07-10 15:09:00,
2013-07-10 11:14:00,78.3,73.8,29.88,SE,146,0.0,0.0,86,0.00,,,0.00,WeatherCatV1.15B25,2013-07-10 15:14:00,
2013-07-10 11:19:00,79.0,73.4,29.88,SSE,148,0.0,1.0,83,0.00,,,0.00,WeatherCatV1.15B25,2013-07-10 15:19:00,
2013-07-10 11:24:00,79.2,73.2,29.88,ENE,64,0.0,0.0,82,0.00,,,0.00,WeatherCatV1.15B25,2013-07-10 15:24:00,
2013-07-10 11:29:00,79.6,73.2,29.88,SSE,165,0.0,0.0,81,0.00,,,0.00,WeatherCatV1.15B25,2013-07-10 15:29:00,
2013-07-10 11:34:00,80.0,73.6,29.87,SSE,167,0.0,0.0,81,0.00,,,0.00,WeatherCatV1.15B25,2013-07-10 15:34:00,
2013-07-10 11:39:00,80.1,73.4,29.87,South,175,0.0,2.0,80,0.00,,,0.00,WeatherCatV1.15B25,2013-07-10 15:39:00,
2013-07-10 11:44:00,80.2,73.1,29.88,WSW,244,3.0,4.0,79,0.00,,,0.00,WeatherCatV1.15B25,2013-07-10 15:44:00,
2013-07-10 11:49:00,80.0,72.9,29.88,South,170,0.0,0.0,79,0.00,,,0.00,WeatherCatV1.15B25,2013-07-10 15:49:00,
2013-07-10 11:54:00,80.3,73.5,29.87,SE,126,0.0,0.0,80,0.00,,,0.00,WeatherCatV1.15B25,2013-07-10 15:54:00,
2013-07-10 11:59:00,80.2,72.7,29.87,ESE,115,0.0,0.0,78,0.00,,,0.00,WeatherCatV1.15B25,2013-07-10 15:59:00,
2013-07-10 12:04:00,80.3,73.5,29.87,ESE,115,0.0,0.0,80,0.00,,,0.00,WeatherCatV1.15B25,2013-07-10 16:04:00,
2013-07-10 12:09:00,80.6,73.1,29.87,East,94,5.0,5.0,78,0.00,,,0.00,WeatherCatV1.15B25,2013-07-10 16:09:00,
2013-07-10 12:14:00,80.7,73.6,29.87,ESE,117,0.0,0.0,79,0.00,,,0.00,WeatherCatV1.15B25,2013-07-10 16:14:00,
2013-07-10 12:19:00,81.1,73.6,29.87,SSE,147,0.0,0.0,78,0.00,,,0.00,WeatherCatV1.15B25,2013-07-10 16:19:00,
2013-07-10 12:24:00,81.3,73.0,29.87,ESE,119,0.0,2.0,76,0.00,,,0.00,WeatherCatV1.15B25,2013-07-10 16:24:00,
2013-07-10 12:29:00,81.5,73.2,29.86,SSE,148,0.0,1.0,76,0.00,,,0.00,WeatherCatV1.15B25,2013-07-10 16:29:00,
2013-07-10 12:34:00,81.6,73.3,29.86,ESE,122,0.0,1.0,76,0.00,,,0.00,WeatherCatV1.15B25,2013-07-10 16:34:00,
2013-07-10 12:39:00,81.9,73.6,29.85,South,170,0.0,2.0,76,0.00,,,0.00,WeatherCatV1.15B25,2013-07-10 16:39:00,
2013-07-10 12:44:00,82.3,73.6,29.86,South,188,0.0,5.0,75,0.00,,,0.00,WeatherCatV1.15B25,2013-07-10 16:44:00,
2013-07-10 12:49:00,82.5,73.8,29.85,WSW,240,0.0,3.0,75,0.00,,,0.00,WeatherCatV1.15B25,2013-07-10 16:49:00,
2013-07-10 12:54:00,82.7,74.3,29.85,South,174,0.0,0.0,76,0.00,,,0.00,WeatherCatV1.15B25,2013-07-10 16:54:00,
2013-07-10 12:59:00,83.0,73.8,29.85,SSE,151,0.0,3.0,74,0.00,,,0.00,WeatherCatV1.15B25,2013-07-10 16:59:00,
2013-07-10 13:04:00,83.2,73.6,29.85,SSW,207,1.0,5.0,73,0.00,,,0.00,WeatherCatV1.15B25,2013-07-10 17:04:00,
2013-07-10 13:09:00,83.6,73.2,29.84,SE,144,0.0,1.0,71,0.00,,,0.00,WeatherCatV1.15B25,2013-07-10 17:09:00,
2013-07-10 13:14:00,83.7,73.7,29.84,SSE,157,0.0,2.0,72,0.00,,,0.00,WeatherCatV1.15B25,2013-07-10 17:14:00,
2013-07-10 13:19:00,83.9,73.9,29.84,SSE,163,0.0,6.0,72,0.00,,,0.00,WeatherCatV1.15B25,2013-07-10 17:19:00,
2013-07-10 13:24:00,84.2,73.7,29.83,SE,141,0.0,3.0,71,0.00,,,0.00,WeatherCatV1.15B25,2013-07-10 17:24:00,
2013-07-10 13:29:00,84.4,74.4,29.83,SSE,167,3.0,4.0,72,0.00,,,0.00,WeatherCatV1.15B25,2013-07-10 17:29:00,
2013-07-10 13:34:00,84.1,73.2,29.83,SSW,193,1.0,2.0,70,0.00,,,0.00,WeatherCatV1.15B25,2013-07-10 17:34:00,
2013-07-10 13:39:00,83.9,73.0,29.82,ESE,117,3.0,3.0,70,0.00,,,0.00,WeatherCatV1.15B25,2013-07-10 17:39:00,
2013-07-10 13:44:00,83.6,73.6,29.82,South,183,0.0,2.0,72,0.00,,,0.00,WeatherCatV1.15B25,2013-07-10 17:44:00,
2013-07-10 13:49:00,83.4,73.4,29.82,SW,231,0.0,3.0,72,0.00,,,0.00,WeatherCatV1.15B25,2013-07-10 17:49:00,
2013-07-10 13:54:00,83.4,74.6,29.82,SSE,165,0.0,0.0,75,0.00,,,0.00,WeatherCatV1.15B25,2013-07-10 17:54:00,
2013-07-10 13:59:00,83.4,74.2,29.81,ESE,119,0.0,4.0,74,0.00,,,0.00,WeatherCatV1.15B25,2013-07-10 17:59:00,
2013-07-10 14:04:00,83.6,74.4,29.81,SE,128,1.0,2.0,74,0.00,,,0.00,WeatherCatV1.15B25,2013-07-10 18:04:00,
2013-07-10 14:09:00,83.6,74.0,29.81,South,173,0.0,6.0,73,0.00,,,0.00,WeatherCatV1.15B25,2013-07-10 18:09:00,
2013-07-10 14:14:00,83.4,74.2,29.81,SE,133,1.0,4.0,74,0.00,,,0.00,WeatherCatV1.15B25,2013-07-10 18:14:00,
2013-07-10 14:19:00,83.2,74.0,29.81,South,169,3.0,4.0,74,0.00,,,0.00,WeatherCatV1.15B25,2013-07-10 18:19:00,
2013-07-10 14:24:00,82.9,73.7,29.81,SSE,168,2.0,4.0,74,0.00,,,0.00,WeatherCatV1.15B25,2013-07-10 18:24:00,
2013-07-10 14:29:00,82.7,73.9,29.81,ESE,121,4.0,9.0,75,0.00,,,0.00,WeatherCatV1.15B25,2013-07-10 18:29:00,
2013-07-10 14:34:00,82.8,73.6,29.81,SE,132,0.0,5.0,74,0.00,,,0.00,WeatherCatV1.15B25,2013-07-10 18:34:00,
2013-07-10 14:39:00,83.1,73.9,29.81,SE,136,1.0,5.0,74,0.00,,,0.00,WeatherCatV1.15B25,2013-07-10 18:39:00,
2013-07-10 14:44:00,83.4,73.8,29.81,SE,141,3.0,6.0,73,0.00,,,0.00,WeatherCatV1.15B25,2013-07-10 18:44:00,
2013-07-10 14:49:00,83.4,74.2,29.80,SE,142,3.0,8.0,74,0.00,,,0.00,WeatherCatV1.15B25,2013-07-10 18:49:00,
2013-07-10 14:54:00,83.2,73.6,29.80,South,181,0.0,7.0,73,0.00,,,0.00,WeatherCatV1.15B25,2013-07-10 18:54:00,
2013-07-10 14:59:00,82.9,72.9,29.80,SSE,165,0.0,5.0,72,0.00,,,0.00,WeatherCatV1.15B25,2013-07-10 18:59:00,
2013-07-10 15:04:00,83.2,73.6,29.80,ESE,119,1.0,7.0,73,0.00,,,0.00,WeatherCatV1.15B25,2013-07-10 19:04:00,
2013-07-10 15:09:00,83.4,73.0,29.79,SE,124,4.0,8.0,71,0.00,,,0.00,WeatherCatV1.15B25,2013-07-10 19:09:00,
2013-07-10 15:14:00,83.5,73.5,29.79,South,188,1.0,5.0,72,0.00,,,0.00,WeatherCatV1.15B25,2013-07-10 19:14:00,
2013-07-10 15:19:00,83.7,73.3,29.79,SSE,168,2.0,5.0,71,0.00,,,0.00,WeatherCatV1.15B25,2013-07-10 19:19:00,
2013-07-10 15:24:00,83.4,73.0,29.79,ESE,121,1.0,6.0,71,0.00,,,0.00,WeatherCatV1.15B25,2013-07-10 19:24:00,
2013-07-10 15:29:00,83.5,73.5,29.79,South,182,7.0,8.0,72,0.00,,,0.00,WeatherCatV1.15B25,2013-07-10 19:29:00,
2013-07-10 15:34:00,83.7,73.7,29.79,SSE,167,3.0,6.0,72,0.00,,,0.00,WeatherCatV1.15B25,2013-07-10 19:34:00,
2013-07-10 15:39:00,83.3,73.3,29.78,SE,139,0.0,6.0,72,0.00,,,0.00,WeatherCatV1.15B25,2013-07-10 19:39:00,
2013-07-10 15:44:00,83.4,73.4,29.79,SSE,149,4.0,7.0,72,0.00,,,0.00,WeatherCatV1.15B25,2013-07-10 19:44:00,
2013-07-10 15:49:00,83.3,73.3,29.78,ESE,111,3.0,8.0,72,0.00,,,0.00,WeatherCatV1.15B25,2013-07-10 19:49:00,
2013-07-10 15:54:00,83.6,73.6,29.78,SSE,147,1.0,7.0,72,0.00,,,0.00,WeatherCatV1.15B25,2013-07-10 19:54:00,
2013-07-10 15:59:00,83.6,73.2,29.77,SSE,161,0.0,9.0,71,0.00,,,0.00,WeatherCatV1.15B25,2013-07-10 19:59:00,
2013-07-10 16:04:00,83.3,73.3,29.77,SSE,161,4.0,14.0,72,0.00,,,0.00,WeatherCatV1.15B25,2013-07-10 20:04:00,
2013-07-10 16:09:00,83.1,73.5,29.77,South,171,3.0,6.0,73,0.00,,,0.00,WeatherCatV1.15B25,2013-07-10 20:09:00,
2013-07-10 16:14:00,82.6,73.8,29.78,SE,145,0.0,2.0,75,0.00,,,0.00,WeatherCatV1.15B25,2013-07-10 20:14:00,
2013-07-10 16:19:00,82.3,74.0,29.78,SSE,161,3.0,4.0,76,0.00,,,0.00,WeatherCatV1.15B25,2013-07-10 20:19:00,
2013-07-10 16:24:00,82.2,74.2,29.77,SE,141,0.0,3.0,77,0.00,,,0.00,WeatherCatV1.15B25,2013-07-10 20:24:00,
2013-07-10 16:29:00,82.2,74.2,29.77,SSE,155,0.0,2.0,77,0.00,,,0.00,WeatherCatV1.15B25,2013-07-10 20:29:00,
2013-07-10 16:34:00,82.2,74.2,29.77,SSE,155,4.0,5.0,77,0.00,,,0.00,WeatherCatV1.15B25,2013-07-10 20:34:00,
2013-07-10 16:39:00,82.4,74.4,29.76,WSW,252,6.0,9.0,77,0.00,,,0.00,WeatherCatV1.15B25,2013-07-10 20:39:00,
2013-07-10 16:44:00,82.6,74.6,29.76,SSE,149,2.0,4.0,77,0.00,,,0.00,WeatherCatV1.15B25,2013-07-10 20:44:00,
2013-07-10 16:49:00,82.6,75.0,29.76,SSW,195,0.0,3.0,78,0.00,,,0.00,WeatherCatV1.15B25,2013-07-10 20:49:00,
2013-07-10 16:54:00,82.4,74.8,29.76,South,186,1.0,4.0,78,0.00,,,0.00,WeatherCatV1.15B25,2013-07-10 20:54:00,
2013-07-10 16:59:00,82.2,73.9,29.76,SSE,150,2.0,7.0,76,0.00,,,0.00,WeatherCatV1.15B25,2013-07-10 20:59:00,
2013-07-10 17:04:00,81.7,73.4,29.76,SSE,160,2.0,10.0,76,0.00,,,0.00,WeatherCatV1.15B25,2013-07-10 21:04:00,
2013-07-10 17:09:00,81.4,73.5,29.76,SE,143,5.0,8.0,77,0.00,,,0.00,WeatherCatV1.15B25,2013-07-10 21:09:00,
2013-07-10 17:14:00,80.9,73.4,29.76,SE,136,3.0,12.0,78,0.00,,,0.00,WeatherCatV1.15B25,2013-07-10 21:14:00,
2013-07-10 17:19:00,80.4,73.3,29.75,South,176,3.0,7.0,79,0.00,,,0.00,WeatherCatV1.15B25,2013-07-10 21:19:00,
2013-07-10 17:24:00,80.2,73.5,29.76,SSE,161,2.0,6.0,80,0.00,,,0.00,WeatherCatV1.15B25,2013-07-10 21:24:00,
2013-07-10 17:29:00,80.0,73.6,29.76,SSE,167,0.0,4.0,81,0.00,,,0.00,WeatherCatV1.15B25,2013-07-10 21:29:00,
2013-07-10 17:34:00,79.6,73.6,29.75,East,100,0.0,8.0,82,0.00,,,0.00,WeatherCatV1.15B25,2013-07-10 21:34:00,
2013-07-10 17:39:00,79.4,73.4,29.75,SE,127,4.0,4.0,82,0.00,,,0.00,WeatherCatV1.15B25,2013-07-10 21:39:00,
2013-07-10 17:44:00,79.3,73.3,29.75,SE,140,7.0,11.0,82,0.00,,,0.00,WeatherCatV1.15B25,2013-07-10 21:44:00,
2013-07-10 17:49:00,79.0,73.4,29.75,South,184,3.0,5.0,83,0.00,,,0.00,WeatherCatV1.15B25,2013-07-10 21:49:00,
2013-07-10 17:54:00,78.8,73.2,29.75,SE,128,4.0,5.0,83,0.00,,,0.00,WeatherCatV1.15B25,2013-07-10 21:54:00,
2013-07-10 17:59:00,78.7,73.4,29.75,SSE,156,1.0,3.0,84,0.00,,,0.00,WeatherCatV1.15B25,2013-07-10 21:59:00,
2013-07-10 18:04:00,78.5,73.2,29.74,SE,134,0.0,3.0,84,0.00,,,0.00,WeatherCatV1.15B25,2013-07-10 22:04:00,
2013-07-10 18:09:00,78.3,73.1,29.74,SE,130,3.0,5.0,84,0.00,,,0.00,WeatherCatV1.15B25,2013-07-10 22:09:00,
2013-07-10 18:14:00,78.2,73.3,29.74,ESE,113,3.0,6.0,85,0.00,,,0.00,WeatherCatV1.15B25,2013-07-10 22:14:00,
2013-07-10 18:19:00,78.2,73.3,29.74,SE,134,3.0,3.0,85,0.00,,,0.00,WeatherCatV1.15B25,2013-07-10 22:19:00,
2013-07-10 18:24:00,78.2,73.3,29.74,SSE,162,1.0,3.0,85,0.00,,,0.00,WeatherCatV1.15B25,2013-07-10 22:24:00,
2013-07-10 18:29:00,78.0,73.1,29.74,SSW,213,1.0,3.0,85,0.00,,,0.00,WeatherCatV1.15B25,2013-07-10 22:29:00,
2013-07-10 18:34:00,78.0,73.5,29.74,ESE,103,5.0,5.0,86,0.00,,,0.00,WeatherCatV1.15B25,2013-07-10 22:34:00,
2013-07-10 18:39:00,77.9,73.4,29.74,NW,311,0.0,3.0,86,0.00,,,0.00,WeatherCatV1.15B25,2013-07-10 22:39:00,
2013-07-10 18:44:00,77.9,73.4,29.74,West,265,1.0,2.0,86,0.00,,,0.00,WeatherCatV1.15B25,2013-07-10 22:44:00,
2013-07-10 18:49:00,77.9,73.4,29.74,SSE,160,0.0,3.0,86,0.00,,,0.00,WeatherCatV1.15B25,2013-07-10 22:49:00,
2013-07-10 18:54:00,78.0,73.5,29.74,ESE,118,0.0,4.0,86,0.00,,,0.00,WeatherCatV1.15B25,2013-07-10 22:54:00,
2013-07-10 18:59:00,77.9,73.4,29.74,SE,144,1.0,2.0,86,0.00,,,0.00,WeatherCatV1.15B25,2013-07-10 22:59:00,
2013-07-10 19:04:00,78.0,73.5,29.74,SSE,161,0.0,2.0,86,0.00,,,0.00,WeatherCatV1.15B25,2013-07-10 23:04:00,
2013-07-10 19:09:00,77.9,73.4,29.74,South,186,1.0,2.0,86,0.00,,,0.00,WeatherCatV1.15B25,2013-07-10 23:09:00,
2013-07-10 19:14:00,77.8,73.9,29.74,SE,125,1.0,1.0,88,0.00,,,0.00,WeatherCatV1.15B25,2013-07-10 23:14:00,
2013-07-10 19:19:00,77.6,73.8,29.74,SE,131,0.0,1.0,88,0.00,,,0.00,WeatherCatV1.15B25,2013-07-10 23:19:00,
2013-07-10 19:24:00,77.4,73.6,29.74,SSE,159,3.0,3.0,88,0.00,,,0.00,WeatherCatV1.15B25,2013-07-10 23:24:00,
2013-07-10 19:29:00,77.3,73.8,29.74,SSE,155,2.0,5.0,89,0.00,,,0.00,WeatherCatV1.15B25,2013-07-10 23:29:00,
2013-07-10 19:34:00,77.2,73.7,29.75,East,100,0.0,2.0,89,0.00,,,0.00,WeatherCatV1.15B25,2013-07-10 23:34:00,
2013-07-10 19:39:00,77.1,73.6,29.75,SSE,150,1.0,2.0,89,0.00,,,0.00,WeatherCatV1.15B25,2013-07-10 23:39:00,
2013-07-10 19:44:00,77.0,73.5,29.75,SSE,152,2.0,2.0,89,0.00,,,0.00,WeatherCatV1.15B25,2013-07-10 23:44:00,
2013-07-10 19:49:00,76.9,73.7,29.75,ESE,121,4.0,5.0,90,0.00,,,0.00,WeatherCatV1.15B25,2013-07-10 23:49:00,
2013-07-10 19:54:00,76.8,73.6,29.75,SE,142,1.0,1.0,90,0.00,,,0.00,WeatherCatV1.15B25,2013-07-10 23:54:00,
2013-07-10 19:59:00,76.7,73.5,29.75,SE,141,2.0,3.0,90,0.00,,,0.00,WeatherCatV1.15B25,2013-07-10 23:59:00,
2013-07-10 20:04:00,76.7,73.5,29.75,SE,137,1.0,3.0,90,0.00,,,0.00,WeatherCatV1.15B25,2013-07-11 00:04:00,
2013-07-10 20:09:00,76.6,73.4,29.75,SSE,148,0.0,2.0,90,0.00,,,0.00,WeatherCatV1.15B25,2013-07-11 00:09:00,
2013-07-10 20:14:00,76.6,73.4,29.76,East,98,0.0,2.0,90,0.00,,,0.00,WeatherCatV1.15B25,2013-07-11 00:14:00,
2013-07-10 20:19:00,76.6,73.4,29.76,SE,146,0.0,1.0,90,0.00,,,0.00,WeatherCatV1.15B25,2013-07-11 00:19:00,
2013-07-10 20:24:00,76.6,73.4,29.76,SSE,164,0.0,1.0,90,0.00,,,0.00,WeatherCatV1.15B25,2013-07-11 00:24:00,
2013-07-10 20:29:00,76.5,73.3,29.75,SSE,164,0.0,2.0,90,0.00,,,0.00,WeatherCatV1.15B25,2013-07-11 00:29:00,
2013-07-10 20:34:00,76.5,73.3,29.75,SSE,166,0.0,0.0,90,0.00,,,0.00,WeatherCatV1.15B25,2013-07-11 00:34:00,
2013-07-10 20:39:00,76.4,73.2,29.76,SSE,166,1.0,1.0,90,0.00,,,0.00,WeatherCatV1.15B25,2013-07-11 00:39:00,
2013-07-10 20:44:00,76.4,73.6,29.75,SSE,166,0.0,1.0,91,0.00,,,0.00,WeatherCatV1.15B25,2013-07-11 00:44:00,
2013-07-10 20:49:00,76.4,73.2,29.75,SSE,166,0.0,1.0,90,0.00,,,0.00,WeatherCatV1.15B25,2013-07-11 00:49:00,
2013-07-10 20:54:00,76.4,73.6,29.75,SSE,165,1.0,2.0,91,0.00,,,0.00,WeatherCatV1.15B25,2013-07-11 00:54:00,
2013-07-10 20:59:00,76.3,73.5,29.75,SSE,165,0.0,0.0,91,0.00,,,0.00,WeatherCatV1.15B25,2013-07-11 00:59:00,
2013-07-10 21:04:00,76.2,73.4,29.75,WSW,251,0.0,0.0,91,0.00,,,0.00,WeatherCatV1.15B25,2013-07-11 01:04:00,
2013-07-10 21:09:00,76.2,73.4,29.75,WSW,251,0.0,0.0,91,0.00,,,0.00,WeatherCatV1.15B25,2013-07-11 01:09:00,
2013-07-10 21:14:00,76.2,73.4,29.75,WNW,283,0.0,1.0,91,0.00,,,0.00,WeatherCatV1.15B25,2013-07-11 01:14:00,
2013-07-10 21:19:00,76.1,73.3,29.75,WSW,242,0.0,2.0,91,0.00,,,0.00,WeatherCatV1.15B25,2013-07-11 01:19:00,
2013-07-10 21:24:00,76.1,73.3,29.75,SE,129,0.0,1.0,91,0.00,,,0.00,WeatherCatV1.15B25,2013-07-11 01:24:00,
2013-07-10 21:29:00,76.0,73.2,29.76,SE,129,0.0,1.0,91,0.00,,,0.00,WeatherCatV1.15B25,2013-07-11 01:29:00,
2013-07-10 21:34:00,76.1,73.3,29.76,South,169,0.0,1.0,91,0.00,,,0.00,WeatherCatV1.15B25,2013-07-11 01:34:00,
2013-07-10 21:39:00,76.0,73.2,29.75,SSE,164,0.0,3.0,91,0.00,,,0.00,WeatherCatV1.15B25,2013-07-11 01:39:00,
2013-07-10 21:44:00,76.0,73.2,29.76,South,169,0.0,3.0,91,0.00,,,0.00,WeatherCatV1.15B25,2013-07-11 01:44:00,
2013-07-10 21:49:00,75.9,73.1,29.76,South,179,0.0,0.0,91,0.00,,,0.00,WeatherCatV1.15B25,2013-07-11 01:49:00,
2013-07-10 21:54:00,75.8,73.3,29.76,South,180,1.0,1.0,92,0.00,,,0.00,WeatherCatV1.15B25,2013-07-11 01:54:00,
2013-07-10 21:59:00,75.7,73.2,29.76,SSW,193,0.0,2.0,92,0.00,,,0.00,WeatherCatV1.15B25,2013-07-11 01:59:00,
2013-07-10 22:04:00,75.6,73.1,29.76,West,275,0.0,1.0,92,0.00,,,0.01,WeatherCatV1.15B25,2013-07-11 02:04:00,
2013-07-10 22:09:00,75.5,73.0,29.76,South,188,0.0,0.0,92,0.00,,,0.01,WeatherCatV1.15B25,2013-07-11 02:09:00,
2013-07-10 22:14:00,75.4,72.9,29.75,South,188,0.0,1.0,92,0.00,,,0.01,WeatherCatV1.15B25,2013-07-11 02:14:00,
2013-07-10 22:19:00,75.2,72.7,29.75,South,177,0.0,3.0,92,0.00,,,0.01,WeatherCatV1.15B25,2013-07-11 02:19:00,
2013-07-10 22:24:00,75.1,72.9,29.75,SSE,147,1.0,2.0,93,0.00,,,0.01,WeatherCatV1.15B25,2013-07-11 02:24:00,
2013-07-10 22:29:00,75.0,72.8,29.76,SE,128,0.0,1.0,93,0.00,,,0.01,WeatherCatV1.15B25,2013-07-11 02:29:00,
2013-07-10 22:34:00,74.9,72.7,29.75,SE,138,2.0,2.0,93,0.00,,,0.01,WeatherCatV1.15B25,2013-07-11 02:34:00,
2013-07-10 22:39:00,74.8,72.6,29.76,SE,140,0.0,3.0,93,0.00,,,0.01,WeatherCatV1.15B25,2013-07-11 02:39:00,
2013-07-10 22:44:00,74.7,72.5,29.75,East,101,1.0,2.0,93,0.00,,,0.01,WeatherCatV1.15B25,2013-07-11 02:44:00,
2013-07-10 22:49:00,74.7,72.5,29.75,SSE,163,3.0,3.0,93,0.00,,,0.01,WeatherCatV1.15B25,2013-07-11 02:49:00,
2013-07-10 22:54:00,74.6,72.4,29.75,SSE,165,0.0,2.0,93,0.00,,,0.01,WeatherCatV1.15B25,2013-07-11 02:54:00,
2013-07-10 22:59:00,74.6,72.4,29.75,SE,136,0.0,4.0,93,0.00,,,0.01,WeatherCatV1.15B25,2013-07-11 02:59:00,
2013-07-10 23:04:00,74.6,72.4,29.75,SW,234,0.0,1.0,93,0.00,,,0.01,WeatherCatV1.15B25,2013-07-11 03:04:00,
2013-07-10 23:09:00,74.6,72.1,29.75,SE,125,1.0,3.0,92,0.00,,,0.01,WeatherCatV1.15B25,2013-07-11 03:09:00,
2013-07-10 23:14:00,74.6,72.1,29.75,SE,146,1.0,3.0,92,0.00,,,0.01,WeatherCatV1.15B25,2013-07-11 03:14:00,
2013-07-10 23:19:00,74.6,72.1,29.75,WSW,254,0.0,2.0,92,0.00,,,0.01,WeatherCatV1.15B25,2013-07-11 03:19:00,
2013-07-10 23:24:00,74.7,72.2,29.75,SE,126,0.0,3.0,92,0.00,,,0.01,WeatherCatV1.15B25,2013-07-11 03:24:00,
2013-07-10 23:29:00,74.7,72.2,29.75,SE,139,1.0,2.0,92,0.00,,,0.01,WeatherCatV1.15B25,2013-07-11 03:29:00,
2013-07-10 23:34:00,74.6,72.1,29.75,SSE,152,1.0,2.0,92,0.00,,,0.01,WeatherCatV1.15B25,2013-07-11 03:34:00,
2013-07-10 23:39:00,74.6,72.1,29.75,SSE,152,0.0,1.0,92,0.00,,,0.01,WeatherCatV1.15B25,2013-07-11 03:39:00,
2013-07-10 23:44:00,74.6,72.1,29.74,SSE,151,0.0,0.0,92,0.00,,,0.01,WeatherCatV1.15B25,2013-07-11 03:44:00,
2013-07-10 23:49:00,74.6,72.1,29.74,WSW,252,0.0,3.0,92,0.00,,,0.01,WeatherCatV1.15B25,2013-07-11 03:49:00,
2013-07-10 23:54:00,74.6,72.1,29.74,NNW,345,1.0,1.0,92,0.00,,,0.01,WeatherCatV1.15B25,2013-07-11 03:54:00,
2013-07-10 23:59:00,74.6,72.1,29.74,SE,139,0.0,0.0,92,0.00,,,0.01,WeatherCatV1.15B25,2013-07-11 03:59:00,